Home   Weather   Jacksonville Beach   Past weeks
Flag for USA

Past Weather in Jacksonville Beach, Florida, USA — Yesterday and Last 2 Weeks

Now
76 °F

Clear.


Feels Like: 78 °F
Forecast: 81 / 72 °F
Wind: 6 mph from Northwest

Location: Mayport

Current Time: Oct 20, 2019 at 8:08:32 pm

Latest Report: Oct 20, 2019 at 6:52 pm


Visibility: 10 mi

Pressure: 29.91 "Hg

Humidity: 69%

Dew Point: 65 °F

Location of Jacksonville BeachLocation

Past Weather in Jacksonville Beach — Graph

°F

Jacksonville Beach Temperature Yesterday

Maximum temperature yesterday: 81 °F (at 4:32 pm)
Minimum temperature yesterday: 72 °F (at 5:52 am)
Average temperature yesterday: 76 °F

High & Low Weather Summary for the Past Weeks

 TemperatureHumidityPressure
High88 °F (Oct 16, 3:52 pm)97% (Oct 7, 3:52 pm)30.10 "Hg (Oct 7, 3:52 pm)
Low60 °F (Oct 17, 7:52 am)37% (Oct 17, 3:52 pm)29.70 "Hg (Oct 19, 5:52 pm)
Average76 °F74%29.96 "Hg
* Reported Oct 5 6:52 pm — Oct 20 6:52 pm, Jacksonville Beach. Weather by CustomWeather, © 2019

Note: Actual official high and low records may vary slightly from our data, if they occured in-between our weather recording intervals... More about our weather records

Advertising

Jacksonville Beach Weather History for the Previous 24 Hours

Scroll right to see more
 ConditionsComfort  
Time TempWeatherWind HumidityBarometerVisibility
6:52 pm
Sun, Oct 20
76 °FClear.6 mph69%29.91 "Hg10 mi
5:52 pm79 °FSunny.8 mph60%29.90 "Hg10 mi
4:52 pm79 °FSunny.8 mph60%29.90 "Hg10 mi
3:52 pm79 °FSunny.9 mph60%29.89 "Hg10 mi
2:52 pm78 °FSunny.9 mph62%29.90 "Hg10 mi
1:52 pm76 °FSunny.10 mph64%29.90 "Hg10 mi
12:52 pm74 °FScattered clouds.13 mph71%29.92 "Hg10 mi
11:52 am72 °FOvercast.16 mph73%29.91 "Hg10 mi
10:52 am71 °FOvercast.16 mph76%29.90 "Hg10 mi
10:20 am71 °FPartly sunny.16 mph76%29.90 "Hg10 mi
9:52 am72 °FPassing clouds.16 mph76%29.88 "Hg10 mi
8:52 am71 °FSunny.15 mph78%29.85 "Hg10 mi
8:30 am71 °FPassing clouds.14 mph78%29.85 "Hg10 mi
7:52 am71 °FOvercast.15 mph78%29.82 "Hg10 mi
7:31 am71 °FPartly sunny.13 mph78%29.82 "Hg10 mi
6:52 am73 °FPassing clouds.18 mph76%29.79 "Hg10 mi
5:52 am75 °FOvercast.18 mph76%29.76 "Hg10 mi
5:01 am75 °FPassing clouds.21 mph76%29.74 "Hg10 mi
4:25 am76 °FPartly cloudy.14 mph82%29.73 "Hg10 mi
3:52 am76 °FPassing clouds.12 mph85%29.72 "Hg10 mi
3:29 am76 °FPassing clouds.15 mph88%29.72 "Hg10 mi
3:18 am76 °FPassing clouds.16 mph88%29.72 "Hg10 mi
2:52 am76 °FPassing clouds.16 mph88%29.72 "Hg10 mi
1:52 am76 °FClear.17 mph88%29.72 "Hg10 mi
12:52 am76 °FClear.18 mph91%29.72 "Hg10 mi
11:52 pm
Sat, Oct 19
77 °FPartly cloudy.16 mph88%29.74 "Hg10 mi
11:28 pm78 °FMostly cloudy.22 mph84%29.74 "Hg10 mi
10:52 pm78 °FPassing clouds.22 mph84%29.72 "Hg10 mi
9:52 pm77 °FClear.16 mph88%29.71 "Hg10 mi
8:52 pm78 °FPassing clouds.15 mph82%29.71 "Hg10 mi
Weather by CustomWeather, © 2019

See weather overview